Location: Bourg-d�Oueil
(42.8588°N, 0.4991°E)
Time: 15:04:56
(UTC+00:00)

Cosmos 1452 Rocket - Pass Details

Date: 16 June 2021
Orbit: 768 x 774 km, 74.1° (Epoch: 01 August)

Event Time Altitude Azimuth Distance (km) Brightness Sun altitude
Rises 20:52:53 0° 194° (SSW) 3,235 6.4 -11.1°
Reaches altitude 10° 20:55:15 10° 193° (SSW) 2,312 5.7 -11.4°
Maximum altitude 21:00:29 77° 108° (ESE) 797 3.5 -12.1°
Drops below altitude 10° 21:05:46 10° 23° (NNE) 2,326 6.4 -12.7°
Sets 21:08:09 0° 22° (NNE) 3,256 7.2 -13.0°
